Regional Weather Roundup
Issued by NWS

Home | Current Version | Previous Version | Graphics & Text | Print | Product List | Glossary On
Versions: 1 2 3 4 5 6 7 8 9 10 11 12 13 14 15 16 17 18 19 20 21 22 23 24 25 26 27
000
ASUS45 KSLC 230010
RWRUT

UTAH REGIONAL WEATHER ROUNDUP
NATIONAL WEATHER SERVICE SALT LAKE CITY UT
600 PM MDT WED MAR 22 2017

UTZ001>011-023>025-230100-

NORTHERN UTAH

CITY           SKY/WX    TMP DP  RH WIND       PRES   REMARKS
BRIGHAM CITY     N/A     53  41  64 W3        29.82S
HILL AFB       PTSUNNY   50  43  76 CALM      29.80F
LOGAN          LGT RAIN  51  44  77 SE13      29.83F
OGDEN          CLOUDY    52  45  77 E5        29.79F
SALT LAKE CITY CLOUDY    56  43  61 NE14      29.77F
WENDOVER       CLOUDY    59  36  41 NE7       29.77F
HEBER CITY     CLOUDY    54  34  47 SE20G29   29.78R

$$

UTZ011>015-024>027-230100-

CENTRAL/NORTHEAST UTAH

CITY           SKY/WX    TMP DP  RH WIND       PRES   REMARKS
PROVO AIRPORT  CLOUDY    59  43  55 NW14      29.77R
MOAB/CANYONLAN CLOUDY    70  25  18 SW20G26   29.76F
DELTA          CLOUDY    61  32  33 SW17G23   29.78S
PRICE          CLOUDY    61  28  28 SE12      29.79F
RICHFIELD      SUNNY     54  37  54 N1        29.85F
ROOSEVELT      CLOUDY    61  32  33 S16       29.84F
VERNAL         CLOUDY    61  33  35 W15G24    29.82S

$$

UTZ013>016-019>022-027-230100-

SOUTHERN UTAH

CITY           SKY/WX    TMP DP  RH WIND       PRES   REMARKS
BRYCE CANYON   CLOUDY    41  37  86 SE7       29.93F
CEDAR CITY     CLOUDY    57  35  43 SW18G30   29.82F
MILFORD        CLOUDY    61  33  35 SW20      29.78F
ST GEORGE      CLOUDY    71  34  25 W12G21    29.75F
HANKSVILLE     CLOUDY    66  32  28 SW17G26   29.83S
KANAB          MOSUNNY   59  43  55 W6        29.86F
BLANDING       CLOUDY    63  26  25 SW8       29.97F

$$

REGIONAL REPORTS     COLORADO/ARIZONA

CITY           SKY/WX    TMP DP  RH WIND       PRES   REMARKS
CRAIG, CO      CLOUDY    62  21  20 S17G25    29.88F
GRAND JUNCTION CLOUDY    69  24  18 S28G33    29.84F
RIFLE, CO      CLOUDY    60  32  34 E12       29.91F
MONTROSE, CO   CLOUDY    63  25  23 N10       29.91F
CORTEZ, CO     CLOUDY    65  22  19 SW5       29.92F
COLORADO CITY    N/A     64  41  42 SW10      29.85F
PAGE, AZ       CLOUDY    64  50  61 NW10      29.80F
GRAND CANYON   CLOUDY    51  42  71 SW10G23   29.94F THUNDER
KINGMAN, AZ    PTSUNNY   66  22  18 S25G31    29.82F
FLAGSTAFF, AZ  CLOUDY    49  40  71 SW17G23   29.98F

$$

REGIONAL REPORTS    NEVADA/IDAHO/WYOMING

CITY           SKY/WX    TMP DP  RH WIND       PRES   REMARKS
LAS VEGAS, NV  CLOUDY    70  15  12 SW17G24   29.75F
ELY, NY        MOSUNNY   53  11  18 S18       29.80F
ELKO, NV       RAIN      38  33  82 CALM      29.91S
POCATELLO, ID  PTSUNNY   51  39  63 NW5       29.85F
BURLEY, ID     CLOUDY    49  35  58 W15       29.85R
FORT BRIDGER,    N/A     48  37  67 N8        29.89F
EVANSTON, WY   CLOUDY    45  33  63 NW13      29.87S
ROCK SPRINGS,  CLOUDY    50  38  63 W15       29.87R
KEMMERER, WY     N/A     41  34  75 N8        29.89R

$$




USA.gov is the U.S. government's official web portal to all federal, state and local government web resources and services.